Location: Guferjoch
(46.7462°N, 8.4506°E)
Time: 00:26:47
(UTC+00:00)

Cosmos 1666 - Pass Details

Date: 14 July 2020
Orbit: 496 x 521 km, 82.5° (Epoch: 03 August)

Event Time Altitude Azimuth Distance (km) Brightness Sun altitude
Exits shadow 02:48:04 10° 244° (WSW) 1,705 4.7 -8.6°
Maximum altitude 02:50:44 19° 290° (WNW) 1,263 4.4 -8.3°
Drops below altitude 10° 02:53:28 10° 337° (NNW) 1,723 5.6 -7.9°
Sets 02:56:05 0° 355° (N) 2,608 6.9 -7.6°
